STARLINK-37067, 68086

Orbit data source: Space-Track

STARLINK-37067, 68086 is a payload satellite owned by SpaceX/Seattle (US) in LEO that was launched on Wed, 04 Mar 2026 UTC via an FALCON 9 launch vehicle from the Air Force Eastern Test Range (AFETR). Payload-class satellites include a variety of spacecraft equipped with specific instruments for various scientific and technological missions. These include communications satellites like Starlink; space stations such as the ISS; scientific satellites like the Hubble; Earth observation satellites from companies like Planet Labs, Umbra, and HawkEye 360; GPS; miniature CubeSats for education and research; and military/defense satellites.

Loading next visibility...
Identifier
68086, 2026-042T
Orbit
LEO
Country
Flag of USUS
Related business
Manufacturer
SpaceX/Seattle
Mission
Operational Commercial Communications
Bus & Motor
STARLINK V2MO, Unknown motor
Mass
575 kg wet, ~530 kg dry
Launch date (UTC)
2026-03-04 (2 months ago)
Launch vehicle
FALCON 9
Launch site
Air Force Eastern Test Range (AFETR)
Object type
Payload
Rocket body
Debris
Shape & HBR
Box + 2 Pan, 17.7 m
Radar Cross Section
36.964 m²

Expand to show TLE details & history
Last TLE update: 8 hours ago

TLE from 8 hours ago
0 STARLINK-37067
1 68086U 26042T   26119.25003472  .00030208  00000-0  54931-3 0  9992
2 68086  53.1588 302.9613 0001212  53.4481 126.2090 15.49297712  6020
Epoch: 2026-04-29T06:00Z
TLE epoch observation values (Epoch: 2026-04-29T06:00:02.999Z)
Latitude
0.1859°
Longitude
175.59661°
Altitude
420.149 km
Speed
7.66 km/s
True Right ascension
08h 11m 17s
True Declination
0° 11' 05"
Sunlit
Object was in daylight at epoch
Visualization orbit readout
Latitude
Unknown
Longitude
Unknown
Altitude
Unknown
Speed
Unknown
Apparent Right ascension
Unknown
Apparent Declination
Unknown
Sunlit
N/A
Visualization observer readout
Local Sidereal Time
21:51:15
Azimuth
Unknown
Elevation
Unknown
Doppler factor
Unknown
Orbital elements
Apogee altitude
419.862 km
Perigee altitude
418.214 km
Semi-major axis
6,797.175 km
Eccentricity
0.00012
Inclination
53.1588°
RAAN
302.9613°
Arg. of periapsis
53.4481°
True anomaly
126.22021°
Mean anomaly
126.209°
Eccentric anomaly
126.2146°
Mean motion
3.87303 °/min
Orbital period
92.95 mins
BSTAR
0.00054931
Loading maneuver chart data...
Computing Atmospheric mass density...
Loading historical data...
Loading historical data...
Loading historical data...
Loading historical data...
Loading historical data...
Loading historical data...
Loading historical data...

Documentation

Showing up to 5 results
|